Mackall AAF, NC

3:09 PM EDT on September 23, 2017 (GMT -0400)
Mackall Army Air Field

Weather History for KHFF - February, 2013

Change the Weather History Date:

Sunday, February 10, 2013

  Actual Average Record
Temperature  
Mean Temperature 42 °F -  
Max Temperature 57 °F 55 °F 71 °F (1999)
Min Temperature 26 °F 33 °F 21 °F (2006)
Degree Days  
Heating Degree Days 24    
Moisture  
Dew Point 31 °F    
Average Humidity 66    
Maximum Humidity 98    
Minimum Humidity 25    
Precipitation  
Precipitation 0.06 in - - ()
Sea Level Pressure  
Sea Level Pressure 30.38 in    
Wind  
Wind Speed 4 mph (ESE)    
Max Wind Speed 13 mph    
Max Gust Speed 20 mph    
Visibility 10 miles    
Events Rain    
Averages and records for this station are not official NWS values.
T = Trace of Precipitation, MM = Missing Value Source: NWS Daily Summary

Daily Weather History Graph

Daily Weather History Graph

Search for Another Location

Airport or City:

Trip Planner

Search our weather history database for the weather conditions in past years. The results will help you decide how hot, cold, wet, or windy it might be!

Date:

Astronomy

Feb. 10, 2013 Rise Set
Actual Time 7:08 AM EST 5:56 PM EST
Civil Twilight 6:42 AM EST 6:22 PM EST
Nautical Twilight 6:12 AM EST 6:52 PM EST
Astronomical Twilight 5:43 AM EST 7:21 PM EST
Moon 7:00 AM EST (2/10) 6:40 PM EST (2/10)
Length of Visible Light 11h 39m
Length of Day
10h 47m
New Moon, 0% of the Moon is Illuminated
Feb 10
New Moon
Feb 17
First Quarter
Feb 25
Full
Mar 4
Last Quarter
Mar 11
New

Hourly Weather History & Observations

Time (EST) Temp. Windchill Dew Point Humidity Pressure Visibility Wind Dir Wind Speed Gust Speed Precip Events Conditions
12:55 AM 28.8 °F - 27.0 °F 93% 30.39 in 10.0 mi NW 1.2 mph - N/A   Mostly Cloudy
1:55 AM 28.2 °F - 26.8 °F 94% 30.40 in 10.0 mi NNW 1.2 mph - N/A   Clear
2:55 AM 27.1 °F - 25.7 °F 94% 30.41 in 10.0 mi NNW 1.2 mph - N/A   Scattered Clouds
3:55 AM 27.9 °F - 26.2 °F 94% 30.40 in 10.0 mi NNW 1.2 mph - N/A   Partly Cloudy
4:55 AM 26.1 °F - 25.0 °F 96% 30.40 in 10.0 mi NNW 2.3 mph - N/A   Clear
5:55 AM 26.2 °F - 25.7 °F 98% 30.42 in 10.0 mi Variable 1.2 mph - N/A   Mostly Cloudy
6:55 AM 28.2 °F - 26.2 °F 92% 30.45 in 10.0 mi North 2.3 mph - N/A   Mostly Cloudy
7:55 AM 30.0 °F - 27.5 °F 90% 30.48 in 10.0 mi NNW 1.2 mph - N/A   Scattered Clouds
8:55 AM 35.1 °F - 27.9 °F 75% 30.50 in 10.0 mi Variable 2.3 mph - N/A   Clear
9:55 AM 41.4 °F 36.8 °F 23.7 °F 50% 30.50 in 10.0 mi Variable 6.9 mph - N/A   Clear
10:55 AM 45.3 °F 40.1 °F 21.0 °F 38% 30.50 in 10.0 mi SE 10.4 mph - N/A   Clear
11:55 AM 49.6 °F - 19.8 °F 31% 30.48 in 10.0 mi SE 9.2 mph - N/A   Clear
12:55 PM 52.9 °F - 17.8 °F 25% 30.43 in 10.0 mi SE 11.5 mph 19.6 mph N/A   Clear
1:55 PM 54.7 °F - 21.6 °F 28% 30.40 in 10.0 mi SSE 8.1 mph - N/A   Clear
2:55 PM 56.3 °F - 29.7 °F 36% 30.35 in 10.0 mi SE 11.5 mph - N/A   Mostly Cloudy
3:55 PM 57.4 °F - 34.2 °F 42% 30.34 in 10.0 mi SSE 12.7 mph - N/A   Clear
4:55 PM 56.3 °F - 34.3 °F 44% 30.33 in 10.0 mi SE 8.1 mph - N/A   Scattered Clouds
5:55 PM 54.5 °F - 36.1 °F 50% 30.30 in 10.0 mi ESE 5.8 mph - N/A   Mostly Cloudy
6:55 PM 53.8 °F - 36.7 °F 52% 30.30 in 10.0 mi ESE 4.6 mph - N/A   Mostly Cloudy
7:55 PM 53.4 °F - 37.9 °F 56% 30.29 in 10.0 mi East 4.6 mph - N/A   Mostly Cloudy
8:55 PM 53.4 °F - 39.9 °F 60% 30.30 in 10.0 mi ESE 4.6 mph - N/A   Mostly Cloudy
9:55 PM 53.1 °F - 42.4 °F 67% 30.33 in 10.0 mi ESE 3.5 mph - N/A   Mostly Cloudy
10:05 PM 53.6 °F - 42.8 °F 67% 30.33 in 10.0 mi East 2.3 mph - N/A Rain Light Rain
10:55 PM 49.8 °F - 45.1 °F 84% 30.29 in 10.0 mi SE 9.2 mph - 0.00 in Rain Light Rain
11:55 PM 48.9 °F - 46.6 °F 92% 30.24 in 10.0 mi SSE 8.1 mph - 0.06 in Rain Light Rain